Latitude,Longitude,Height (m),Date (UTC),U_velocity (m/s),V_velocity (m/s),Wind_Speed (m/s),Wind_Dir (degrees)
39.0562858581543,-74.37838745117188,160,2021-01-01 00:00:00,-0.3997702,-8.9862385,8.995126,2.5472412
39.0562858581543,-74.37838745117188,160,2021-01-01 01:00:00,0.8903271,-7.2956243,7.349749,353.04227
39.0562858581543,-74.37838745117188,160,2021-01-01 02:00:00,-0.86201096,-8.053933,8.099933,6.1091003
39.0562858581543,-74.37838745117188,160,2021-01-01 03:00:00,-1.4630104,-8.571112,8.695077,9.686523
39.0562858581543,-74.37838745117188,160,2021-01-01 04:00:00,-4.119716,-9.102998,9.991828,24.349945
39.0562858581543,-74.37838745117188,160,2021-01-01 05:00:00,-4.3494797,-9.771841,10.696114,23.994019
39.0562858581543,-74.37838745117188,160,2021-01-01 06:00:00,-5.0731153,-8.945666,10.284039,29.557709
39.0562858581543,-74.37838745117188,160,2021-01-01 07:00:00,-5.64401,-7.8879538,9.699209,35.584595
39.0562858581543,-74.37838745117188,160,2021-01-01 08:00:00,-7.1124034,-4.6040072,8.472495,57.084167
39.0562858581543,-74.37838745117188,160,2021-01-01 09:00:00,-7.6358204,-4.259385,8.743461,60.846497
39.0562858581543,-74.37838745117188,160,2021-01-01 10:00:00,-8.213036,-4.3195286,9.279671,62.258514
39.0562858581543,-74.37838745117188,160,2021-01-01 11:00:00,-8.290471,-4.7746463,9.567087,60.061523
39.0562858581543,-74.37838745117188,160,2021-01-01 12:00:00,-8.371416,-3.6894643,9.148375,66.21588
39.0562858581543,-74.37838745117188,160,2021-01-01 13:00:00,-8.430168,-3.225861,9.02629,69.0603
39.0562858581543,-74.37838745117188,160,2021-01-01 14:00:00,-8.61467,-2.393559,8.9410095,74.47223
39.0562858581543,-74.37838745117188,160,2021-01-01 15:00:00,-8.532129,-1.4215157,8.649736,80.540985
39.0562858581543,-74.37838745117188,160,2021-01-01 16:00:00,-8.355743,-0.072477475,8.356058,89.50302
39.0562858581543,-74.37838745117188,160,2021-01-01 17:00:00,-8.301835,0.03850133,8.301924,90.26572
39.0562858581543,-74.37838745117188,160,2021-01-01 18:00:00,-7.5643287,-0.68838143,7.595587,84.8002
39.0562858581543,-74.37838745117188,160,2021-01-01 19:00:00,-8.138685,-0.35757062,8.146536,87.484344
39.0562858581543,-74.37838745117188,160,2021-01-01 20:00:00,-8.627584,1.2644312,8.719748,98.33774
39.0562858581543,-74.37838745117188,160,2021-01-01 21:00:00,-9.493049,-0.55457675,9.509233,86.65662
39.0562858581543,-74.37838745117188,160,2021-01-01 22:00:00,-9.975423,-0.49043125,9.987472,87.18536
39.0562858581543,-74.37838745117188,160,2021-01-01 23:00:00,-12.488246,0.09896878,12.488638,90.45404
39.0562858581543,-74.37838745117188,160,2021-01-02 00:00:00,-14.058866,2.0102515,14.201859,98.13745
39.0562858581543,-74.37838745117188,160,2021-01-02 01:00:00,-12.4795,3.546536,12.973659,105.86456
39.0562858581543,-74.37838745117188,160,2021-01-02 02:00:00,-9.841577,4.6625643,10.890185,115.34982
39.0562858581543,-74.37838745117188,160,2021-01-02 03:00:00,-8.43357,8.414618,11.913475,134.93555
39.0562858581543,-74.37838745117188,160,2021-01-02 04:00:00,-5.6298876,11.7276325,13.008959,154.3565
39.0562858581543,-74.37838745117188,160,2021-01-02 05:00:00,1.3181127,22.106174,22.145437,183.41231
39.0562858581543,-74.37838745117188,160,2021-01-02 06:00:00,9.818423,22.147121,24.225945,203.90901
39.0562858581543,-74.37838745117188,160,2021-01-02 07:00:00,12.225572,14.227395,18.758554,220.6724
39.0562858581543,-74.37838745117188,160,2021-01-02 08:00:00,9.893528,5.9199944,11.52945,239.10495
39.0562858581543,-74.37838745117188,160,2021-01-02 09:00:00,10.836587,4.2199607,11.62926,248.72318
39.0562858581543,-74.37838745117188,160,2021-01-02 10:00:00,12.605903,4.7919326,13.4859705,249.1865
39.0562858581543,-74.37838745117188,160,2021-01-02 11:00:00,13.692839,3.99891,14.264821,253.71988
39.0562858581543,-74.37838745117188,160,2021-01-02 12:00:00,14.352525,4.2729173,14.975072,253.42111
39.0562858581543,-74.37838745117188,160,2021-01-02 13:00:00,14.259827,0.9067291,14.288625,266.3617
39.0562858581543,-74.37838745117188,160,2021-01-02 14:00:00,14.119601,0.06779439,14.119764,269.7249
39.0562858581543,-74.37838745117188,160,2021-01-02 15:00:00,14.836856,-0.8614624,14.861844,273.323
39.0562858581543,-74.37838745117188,160,2021-01-02 16:00:00,15.243067,-2.2062209,15.401899,278.23557
39.0562858581543,-74.37838745117188,160,2021-01-02 17:00:00,15.894761,-2.3865747,16.072933,278.5391
39.0562858581543,-74.37838745117188,160,2021-01-02 18:00:00,14.958614,-4.0510893,15.497467,285.15335
39.0562858581543,-74.37838745117188,160,2021-01-02 19:00:00,12.749613,-6.236358,14.193125,296.06516
39.0562858581543,-74.37838745117188,160,2021-01-02 20:00:00,12.757873,-6.6738296,14.398031,297.61472
39.0562858581543,-74.37838745117188,160,2021-01-02 21:00:00,11.01117,-6.4983716,12.785723,300.5475
39.0562858581543,-74.37838745117188,160,2021-01-02 22:00:00,10.317714,-6.7469363,12.327869,303.1814
39.0562858581543,-74.37838745117188,160,2021-01-02 23:00:00,7.993156,-8.116435,11.391535,315.43845
39.0562858581543,-74.37838745117188,160,2021-01-03 00:00:00,5.8095903,-8.6214075,10.396153,326.0257
39.0562858581543,-74.37838745117188,160,2021-01-03 01:00:00,4.350433,-8.550645,9.593738,333.03372
39.0562858581543,-74.37838745117188,160,2021-01-03 02:00:00,-0.70632964,-9.6121025,9.63802,4.2027283
39.0562858581543,-74.37838745117188,160,2021-01-03 03:00:00,-0.5413674,-8.9477,8.964062,3.4623718
39.0562858581543,-74.37838745117188,160,2021-01-03 04:00:00,-2.9613168,-7.597501,8.154227,21.294617
39.0562858581543,-74.37838745117188,160,2021-01-03 05:00:00,-4.735752,-6.0026665,7.6458716,38.271362
39.0562858581543,-74.37838745117188,160,2021-01-03 06:00:00,-6.9898906,-4.9636507,8.573004,54.620728
39.0562858581543,-74.37838745117188,160,2021-01-03 07:00:00,-8.213745,-4.723182,9.474917,60.09964
39.0562858581543,-74.37838745117188,160,2021-01-03 08:00:00,-8.709337,-1.1312155,8.782495,82.59955
39.0562858581543,-74.37838745117188,160,2021-01-03 09:00:00,-10.921739,-3.4837809,11.463904,72.30853
39.0562858581543,-74.37838745117188,160,2021-01-03 10:00:00,-9.663615,1.0682348,9.722479,96.30798
39.0562858581543,-74.37838745117188,160,2021-01-03 11:00:00,-9.237333,3.2699106,9.799012,109.49338
39.0562858581543,-74.37838745117188,160,2021-01-03 12:00:00,-9.649891,3.9893405,10.441994,112.46057
39.0562858581543,-74.37838745117188,160,2021-01-03 13:00:00,-10.813652,2.5195532,11.103297,103.11578
39.0562858581543,-74.37838745117188,160,2021-01-03 14:00:00,-9.945882,3.5093603,10.546856,109.43518
39.0562858581543,-74.37838745117188,160,2021-01-03 15:00:00,-9.683515,3.0510056,10.152787,107.48819
39.0562858581543,-74.37838745117188,160,2021-01-03 16:00:00,-6.6326027,2.077976,6.9504967,107.39563
39.0562858581543,-74.37838745117188,160,2021-01-03 17:00:00,-8.445491,0.1443745,8.446725,90.97937
39.0562858581543,-74.37838745117188,160,2021-01-03 18:00:00,-9.735416,-1.2397617,9.814038,82.74271
39.0562858581543,-74.37838745117188,160,2021-01-03 19:00:00,-10.789427,-1.3785173,10.877133,82.719025
39.0562858581543,-74.37838745117188,160,2021-01-03 20:00:00,-10.442496,-1.128028,10.503246,83.834656
39.0562858581543,-74.37838745117188,160,2021-01-03 21:00:00,-9.463504,-4.3501062,10.415437,65.31308
39.0562858581543,-74.37838745117188,160,2021-01-03 22:00:00,-12.461478,-6.6612353,14.130127,61.873444
39.0562858581543,-74.37838745117188,160,2021-01-03 23:00:00,-10.339377,-8.149861,13.165218,51.75357
39.0562858581543,-74.37838745117188,160,2021-01-04 00:00:00,-0.53602445,-17.43003,17.43827,1.7614441
39.0562858581543,-74.37838745117188,160,2021-01-04 01:00:00,-0.7243396,-12.056786,12.078525,3.4380493
39.0562858581543,-74.37838745117188,160,2021-01-04 02:00:00,-4.1173096,-13.170807,13.799362,17.35971
39.0562858581543,-74.37838745117188,160,2021-01-04 03:00:00,-7.5644,-12.722205,14.801171,30.734985
39.0562858581543,-74.37838745117188,160,2021-01-04 04:00:00,-8.347178,-11.391486,14.122371,36.2323
39.0562858581543,-74.37838745117188,160,2021-01-04 05:00:00,-7.335551,-9.742043,12.194986,36.978973
39.0562858581543,-74.37838745117188,160,2021-01-04 06:00:00,-6.844648,-7.877756,10.435911,40.985992
39.0562858581543,-74.37838745117188,160,2021-01-04 07:00:00,-0.9510503,-9.105766,9.155297,5.962616
39.0562858581543,-74.37838745117188,160,2021-01-04 08:00:00,1.056406,-10.704394,10.756396,354.3638
39.0562858581543,-74.37838745117188,160,2021-01-04 09:00:00,-1.8378766,-10.638974,10.796554,9.801086
39.0562858581543,-74.37838745117188,160,2021-01-04 10:00:00,-2.170941,-9.652903,9.894013,12.674957
39.0562858581543,-74.37838745117188,160,2021-01-04 11:00:00,-0.13075428,-9.26803,9.268952,0.8082886
39.0562858581543,-74.37838745117188,160,2021-01-04 12:00:00,-0.41555366,-9.433837,9.442985,2.5222168
39.0562858581543,-74.37838745117188,160,2021-01-04 13:00:00,-1.6987095,-9.191505,9.347159,10.470856
39.0562858581543,-74.37838745117188,160,2021-01-04 14:00:00,-0.56948256,-8.977612,8.995656,3.6296082
39.0562858581543,-74.37838745117188,160,2021-01-04 15:00:00,-0.751479,-8.188395,8.222805,5.243561
39.0562858581543,-74.37838745117188,160,2021-01-04 16:00:00,-0.010135685,-7.450957,7.450964,0.077941895
39.0562858581543,-74.37838745117188,160,2021-01-04 17:00:00,-0.21586376,-6.5633545,6.566903,1.883728
39.0562858581543,-74.37838745117188,160,2021-01-04 18:00:00,-0.31707278,-5.122845,5.132648,3.541748
39.0562858581543,-74.37838745117188,160,2021-01-04 19:00:00,-0.4482988,-4.333821,4.3569455,5.905792
39.0562858581543,-74.37838745117188,160,2021-01-04 20:00:00,-0.007541249,-3.163079,3.163088,0.13659668
39.0562858581543,-74.37838745117188,160,2021-01-04 21:00:00,0.1774824,-2.4711373,2.4775026,355.89194
39.0562858581543,-74.37838745117188,160,2021-01-04 22:00:00,0.384255,-2.115468,2.1500828,349.705
39.0562858581543,-74.37838745117188,160,2021-01-04 23:00:00,0.7954357,-1.6202482,1.8049715,333.852
39.0562858581543,-74.37838745117188,160,2021-01-05 00:00:00,0.80531,-1.0016485,1.285233,321.20126
39.0562858581543,-74.37838745117188,160,2021-01-05 01:00:00,0.7472449,-3.8200686,3.892467,348.9321
39.0562858581543,-74.37838745117188,160,2021-01-05 02:00:00,0.6588715,-4.25671,4.3073997,351.20135
39.0562858581543,-74.37838745117188,160,2021-01-05 03:00:00,0.05468886,-3.473433,3.4738636,359.09796
39.0562858581543,-74.37838745117188,160,2021-01-05 04:00:00,0.7763576,-2.9199622,3.0214086,345.11072
39.0562858581543,-74.37838745117188,160,2021-01-05 05:00:00,1.6346222,-2.8723204,3.3048773,330.35602
39.0562858581543,-74.37838745117188,160,2021-01-05 06:00:00,0.98933303,-2.863225,3.0293295,340.9384
39.0562858581543,-74.37838745117188,160,2021-01-05 07:00:00,0.3272757,-2.9528499,2.970931,353.6755
39.0562858581543,-74.37838745117188,160,2021-01-05 08:00:00,-0.1662476,-2.3784404,2.3842435,3.998352
39.0562858581543,-74.37838745117188,160,2021-01-05 09:00:00,-0.0450198,-2.5648744,2.5652695,1.0055847
39.0562858581543,-74.37838745117188,160,2021-01-05 10:00:00,-0.29332313,-2.9479086,2.962466,5.6823425
39.0562858581543,-74.37838745117188,160,2021-01-05 11:00:00,0.03581844,-2.6216583,2.621903,359.21725
39.0562858581543,-74.37838745117188,160,2021-01-05 12:00:00,0.31036898,-3.3213923,3.335862,354.66147
39.0562858581543,-74.37838745117188,160,2021-01-05 13:00:00,0.4318635,-3.7753282,3.7999485,353.47424
39.0562858581543,-74.37838745117188,160,2021-01-05 14:00:00,0.88800204,-4.0104766,4.107611,347.51495
39.0562858581543,-74.37838745117188,160,2021-01-05 15:00:00,1.3017235,-4.187954,4.385595,342.73343
39.0562858581543,-74.37838745117188,160,2021-01-05 16:00:00,1.3592888,-4.394409,4.599837,342.81198
39.0562858581543,-74.37838745117188,160,2021-01-05 17:00:00,0.5474485,-4.46085,4.4943166,353.00348
39.0562858581543,-74.37838745117188,160,2021-01-05 18:00:00,-0.19165803,-3.6661432,3.6711495,2.9925842
39.0562858581543,-74.37838745117188,160,2021-01-05 19:00:00,-0.83462137,-2.928787,3.0453875,15.906036
39.0562858581543,-74.37838745117188,160,2021-01-05 20:00:00,-1.3272492,-3.0782773,3.3522203,23.324066
39.0562858581543,-74.37838745117188,160,2021-01-05 21:00:00,-0.5517679,-2.342603,2.4067066,13.253662
39.0562858581543,-74.37838745117188,160,2021-01-05 22:00:00,-0.2160246,-2.7605703,2.7690098,4.4744873
39.0562858581543,-74.37838745117188,160,2021-01-05 23:00:00,0.15199581,-4.745031,4.7474647,358.16528
39.0562858581543,-74.37838745117188,160,2021-01-06 00:00:00,0.007351207,-6.377174,6.377178,359.93396
39.0562858581543,-74.37838745117188,160,2021-01-06 01:00:00,0.5541288,-7.6210666,7.6411853,355.84134
39.0562858581543,-74.37838745117188,160,2021-01-06 02:00:00,0.9270671,-7.789308,7.844283,353.2127
39.0562858581543,-74.37838745117188,160,2021-01-06 03:00:00,1.5323607,-7.7769756,7.926505,348.85333
39.0562858581543,-74.37838745117188,160,2021-01-06 04:00:00,2.455479,-7.473861,7.8668914,341.81247
39.0562858581543,-74.37838745117188,160,2021-01-06 05:00:00,2.4755356,-7.3021283,7.710341,341.27252
39.0562858581543,-74.37838745117188,160,2021-01-06 06:00:00,3.6810694,-6.524532,7.4913144,330.5688
39.0562858581543,-74.37838745117188,160,2021-01-06 07:00:00,3.9673474,-6.20591,7.365675,327.40982
39.0562858581543,-74.37838745117188,160,2021-01-06 08:00:00,3.7162087,-7.819285,8.657449,334.58005
39.0562858581543,-74.37838745117188,160,2021-01-06 09:00:00,3.08929,-7.704672,8.300944,338.15103
39.0562858581543,-74.37838745117188,160,2021-01-06 10:00:00,2.5443597,-7.414276,7.838702,341.0593
39.0562858581543,-74.37838745117188,160,2021-01-06 11:00:00,2.0980282,-7.7795205,8.05746,344.9072
39.0562858581543,-74.37838745117188,160,2021-01-06 12:00:00,3.8314779,-8.702302,9.508432,336.2369
39.0562858581543,-74.37838745117188,160,2021-01-06 13:00:00,3.735773,-9.699246,10.393814,338.93524
39.0562858581543,-74.37838745117188,160,2021-01-06 14:00:00,3.8945231,-9.298333,10.080988,337.27408
39.0562858581543,-74.37838745117188,160,2021-01-06 15:00:00,4.33509,-8.959046,9.9527645,334.17865
39.0562858581543,-74.37838745117188,160,2021-01-06 16:00:00,4.1625504,-8.499764,9.464292,333.90784
39.0562858581543,-74.37838745117188,160,2021-01-06 17:00:00,4.3884034,-8.069079,9.185212,331.46027
39.0562858581543,-74.37838745117188,160,2021-01-06 18:00:00,4.905115,-8.101401,9.470632,328.80655
39.0562858581543,-74.37838745117188,160,2021-01-06 19:00:00,5.603542,-8.066116,9.821503,325.21225
39.0562858581543,-74.37838745117188,160,2021-01-06 20:00:00,5.9832015,-8.216713,10.164304,323.93884
39.0562858581543,-74.37838745117188,160,2021-01-06 21:00:00,5.9259753,-7.848325,9.834296,322.94492
39.0562858581543,-74.37838745117188,160,2021-01-06 22:00:00,6.2947416,-8.796694,10.816913,324.41324
39.0562858581543,-74.37838745117188,160,2021-01-06 23:00:00,5.9548965,-9.774841,11.445887,328.64996
39.0562858581543,-74.37838745117188,160,2021-01-07 00:00:00,4.412786,-10.487513,11.378076,337.1803
39.0562858581543,-74.37838745117188,160,2021-01-07 01:00:00,6.939193,-8.363554,10.867448,320.3177
39.0562858581543,-74.37838745117188,160,2021-01-07 02:00:00,7.1368413,-9.276389,11.704098,322.4269
39.0562858581543,-74.37838745117188,160,2021-01-07 03:00:00,5.7529697,-11.194814,12.586521,332.80154
39.0562858581543,-74.37838745117188,160,2021-01-07 04:00:00,6.163403,-10.969685,12.582588,330.6702
39.0562858581543,-74.37838745117188,160,2021-01-07 05:00:00,6.04164,-10.63805,12.23395,330.4066
39.0562858581543,-74.37838745117188,160,2021-01-07 06:00:00,4.7570662,-11.033032,12.014886,336.67593
39.0562858581543,-74.37838745117188,160,2021-01-07 07:00:00,3.9259322,-10.877484,11.564281,340.15433
39.0562858581543,-74.37838745117188,160,2021-01-07 08:00:00,3.325783,-10.623713,11.13212,342.61713
39.0562858581543,-74.37838745117188,160,2021-01-07 09:00:00,3.4498026,-9.569703,10.172529,340.17618
39.0562858581543,-74.37838745117188,160,2021-01-07 10:00:00,3.9833508,-8.837433,9.693673,335.73718
39.0562858581543,-74.37838745117188,160,2021-01-07 11:00:00,4.4958606,-8.47454,9.593257,332.05344
39.0562858581543,-74.37838745117188,160,2021-01-07 12:00:00,4.21836,-8.5610695,9.543923,333.7688
39.0562858581543,-74.37838745117188,160,2021-01-07 13:00:00,3.944132,-8.035046,8.950873,333.85513
39.0562858581543,-74.37838745117188,160,2021-01-07 14:00:00,3.857163,-7.052268,8.038171,331.324
39.0562858581543,-74.37838745117188,160,2021-01-07 15:00:00,3.704088,-6.294184,7.3032203,329.52344
39.0562858581543,-74.37838745117188,160,2021-01-07 16:00:00,3.9703999,-5.0275745,6.4062924,321.701
39.0562858581543,-74.37838745117188,160,2021-01-07 17:00:00,4.6815476,-4.4423714,6.453801,313.49838
39.0562858581543,-74.37838745117188,160,2021-01-07 18:00:00,5.1636486,-4.1489816,6.6239953,308.7818
39.0562858581543,-74.37838745117188,160,2021-01-07 19:00:00,5.145945,-4.5532303,6.8711467,311.50302
39.0562858581543,-74.37838745117188,160,2021-01-07 20:00:00,5.0794086,-5.138148,7.225023,315.32938
39.0562858581543,-74.37838745117188,160,2021-01-07 21:00:00,5.0178037,-5.500121,7.4451118,317.62555
39.0562858581543,-74.37838745117188,160,2021-01-07 22:00:00,4.9503345,-5.3547254,7.292386,317.24725
39.0562858581543,-74.37838745117188,160,2021-01-07 23:00:00,4.992697,-4.9824204,7.053477,314.94098
39.0562858581543,-74.37838745117188,160,2021-01-08 00:00:00,5.475184,-4.185771,6.8919024,307.39786
39.0562858581543,-74.37838745117188,160,2021-01-08 01:00:00,2.7644172,-5.182806,5.873966,331.92532
39.0562858581543,-74.37838745117188,160,2021-01-08 02:00:00,2.9566703,-5.2477827,6.023381,330.6025
39.0562858581543,-74.37838745117188,160,2021-01-08 03:00:00,3.2542408,-5.799219,6.6498895,330.70096
39.0562858581543,-74.37838745117188,160,2021-01-08 04:00:00,0.7509107,-9.233935,9.264418,355.3509
39.0562858581543,-74.37838745117188,160,2021-01-08 05:00:00,-0.631597,-8.28965,8.313677,4.3569946
39.0562858581543,-74.37838745117188,160,2021-01-08 06:00:00,-0.31501585,-5.602488,5.6113377,3.2182312
39.0562858581543,-74.37838745117188,160,2021-01-08 07:00:00,-0.6752689,-4.933419,4.9794188,7.7940063
39.0562858581543,-74.37838745117188,160,2021-01-08 08:00:00,-2.4747674,-5.5930595,6.116109,23.868011
39.0562858581543,-74.37838745117188,160,2021-01-08 09:00:00,-1.5338633,-3.7685635,4.06876,22.147095
39.0562858581543,-74.37838745117188,160,2021-01-08 10:00:00,-1.2585728,-4.140681,4.3277297,16.9068
39.0562858581543,-74.37838745117188,160,2021-01-08 11:00:00,-1.9271567,-4.6597834,5.04257,22.468628
39.0562858581543,-74.37838745117188,160,2021-01-08 12:00:00,-2.4438424,-4.5622287,5.175548,28.176544
39.0562858581543,-74.37838745117188,160,2021-01-08 13:00:00,-2.0566735,-4.516623,4.962841,24.482452
39.0562858581543,-74.37838745117188,160,2021-01-08 14:00:00,-1.6321646,-3.8261147,4.1597013,23.102386
39.0562858581543,-74.37838745117188,160,2021-01-08 15:00:00,-1.3567053,-4.2589984,4.4698677,17.669281
39.0562858581543,-74.37838745117188,160,2021-01-08 16:00:00,-0.5987538,-3.3421407,3.3953514,10.156952
39.0562858581543,-74.37838745117188,160,2021-01-08 17:00:00,-0.7897251,-4.6957617,4.761706,9.54657
39.0562858581543,-74.37838745117188,160,2021-01-08 18:00:00,-1.116923,-3.7883763,3.9495964,16.427032
39.0562858581543,-74.37838745117188,160,2021-01-08 19:00:00,-1.573188,-3.6916585,4.012887,23.081116
39.0562858581543,-74.37838745117188,160,2021-01-08 20:00:00,-1.7200027,-4.2380123,4.5737467,22.089844
39.0562858581543,-74.37838745117188,160,2021-01-08 21:00:00,-1.7999066,-2.6090264,3.16965,34.60089
39.0562858581543,-74.37838745117188,160,2021-01-08 22:00:00,-2.076661,-2.7909935,3.4788167,36.651398
39.0562858581543,-74.37838745117188,160,2021-01-08 23:00:00,-1.5721508,-3.6422758,3.9670935,23.346954
39.0562858581543,-74.37838745117188,160,2021-01-09 00:00:00,-2.2918365,-4.6575503,5.190885,26.200378
39.0562858581543,-74.37838745117188,160,2021-01-09 01:00:00,-2.136999,-5.6920233,6.0799584,20.578003
39.0562858581543,-74.37838745117188,160,2021-01-09 02:00:00,-1.1233656,-7.372579,7.457672,8.663574
39.0562858581543,-74.37838745117188,160,2021-01-09 03:00:00,-0.9989638,-8.771455,8.828157,6.4973145
39.0562858581543,-74.37838745117188,160,2021-01-09 04:00:00,-2.430365,-9.940469,10.233259,13.738831
39.0562858581543,-74.37838745117188,160,2021-01-09 05:00:00,-3.4606042,-11.593874,12.099326,16.619598
39.0562858581543,-74.37838745117188,160,2021-01-09 06:00:00,-3.5180225,-11.297836,11.832903,17.29602
39.0562858581543,-74.37838745117188,160,2021-01-09 07:00:00,-5.090163,-11.839381,12.88723,23.264557
39.0562858581543,-74.37838745117188,160,2021-01-09 08:00:00,-5.1654725,-12.668399,13.681025,22.182922
39.0562858581543,-74.37838745117188,160,2021-01-09 09:00:00,-6.3397055,-12.686783,14.182606,26.551727
39.0562858581543,-74.37838745117188,160,2021-01-09 10:00:00,-6.1289196,-13.772388,15.074559,23.989777
39.0562858581543,-74.37838745117188,160,2021-01-09 11:00:00,-3.8937895,-12.826178,13.404194,16.88733
39.0562858581543,-74.37838745117188,160,2021-01-09 12:00:00,-2.2182138,-12.491817,12.687237,10.069244
39.0562858581543,-74.37838745117188,160,2021-01-09 13:00:00,-1.6544647,-12.004021,12.117498,7.847412
39.0562858581543,-74.37838745117188,160,2021-01-09 14:00:00,0.01554672,-11.278618,11.278628,359.92102
39.0562858581543,-74.37838745117188,160,2021-01-09 15:00:00,0.4477188,-10.479299,10.488858,357.5536
39.0562858581543,-74.37838745117188,160,2021-01-09 16:00:00,1.3724765,-9.330782,9.431181,351.6323
39.0562858581543,-74.37838745117188,160,2021-01-09 17:00:00,3.466519,-8.094911,8.805926,336.81772
39.0562858581543,-74.37838745117188,160,2021-01-09 18:00:00,4.5129533,-8.124939,9.294158,330.95026
39.0562858581543,-74.37838745117188,160,2021-01-09 19:00:00,5.0634236,-7.913721,9.394958,327.38773
39.0562858581543,-74.37838745117188,160,2021-01-09 20:00:00,5.2818327,-8.047098,9.625671,326.72052
39.0562858581543,-74.37838745117188,160,2021-01-09 21:00:00,5.6327205,-8.13057,9.891093,325.28644
39.0562858581543,-74.37838745117188,160,2021-01-09 22:00:00,5.757021,-8.837329,10.547116,326.91803
39.0562858581543,-74.37838745117188,160,2021-01-09 23:00:00,4.130639,-10.004825,10.823987,337.566
39.0562858581543,-74.37838745117188,160,2021-01-10 00:00:00,3.6378436,-12.874104,13.378207,344.22125
39.0562858581543,-74.37838745117188,160,2021-01-10 01:00:00,4.4562483,-9.276666,10.291486,334.34167
39.0562858581543,-74.37838745117188,160,2021-01-10 02:00:00,5.525229,-10.767702,12.102544,332.8363
39.0562858581543,-74.37838745117188,160,2021-01-10 03:00:00,3.8627083,-14.238316,14.752971,344.82156
39.0562858581543,-74.37838745117188,160,2021-01-10 04:00:00,2.972499,-13.812573,14.1287985,347.85504
39.0562858581543,-74.37838745117188,160,2021-01-10 05:00:00,1.822793,-12.48434,12.616708,351.69315
39.0562858581543,-74.37838745117188,160,2021-01-10 06:00:00,1.1794137,-11.523338,11.583538,354.15613
39.0562858581543,-74.37838745117188,160,2021-01-10 07:00:00,1.4050695,-11.125639,11.214012,352.80215
39.0562858581543,-74.37838745117188,160,2021-01-10 08:00:00,0.36644772,-10.94603,10.952162,358.08258
39.0562858581543,-74.37838745117188,160,2021-01-10 09:00:00,0.59838206,-10.241666,10.259131,356.65622
39.0562858581543,-74.37838745117188,160,2021-01-10 10:00:00,0.01960556,-9.760324,9.760344,359.88492
39.0562858581543,-74.37838745117188,160,2021-01-10 11:00:00,0.52891546,-8.590071,8.6063385,356.4766
39.0562858581543,-74.37838745117188,160,2021-01-10 12:00:00,1.3170103,-8.04383,8.150933,350.7015
39.0562858581543,-74.37838745117188,160,2021-01-10 13:00:00,1.3951434,-8.010775,8.131355,350.12054
39.0562858581543,-74.37838745117188,160,2021-01-10 14:00:00,1.6950933,-7.804794,7.986748,347.74646
39.0562858581543,-74.37838745117188,160,2021-01-10 15:00:00,1.1302731,-7.509443,7.5940275,351.44046
39.0562858581543,-74.37838745117188,160,2021-01-10 16:00:00,0.4809177,-6.8164244,6.8333683,355.96432
39.0562858581543,-74.37838745117188,160,2021-01-10 17:00:00,0.5395765,-5.77037,5.7955422,354.6579
39.0562858581543,-74.37838745117188,160,2021-01-10 18:00:00,0.7590524,-4.755076,4.8152785,350.9304
39.0562858581543,-74.37838745117188,160,2021-01-10 19:00:00,1.3873937,-3.5546389,3.8157985,338.67905
39.0562858581543,-74.37838745117188,160,2021-01-10 20:00:00,1.8700954,-3.1637418,3.6751218,329.41257
39.0562858581543,-74.37838745117188,160,2021-01-10 21:00:00,2.3265462,-3.1710718,3.9330032,323.7333
39.0562858581543,-74.37838745117188,160,2021-01-10 22:00:00,2.762026,-3.1078732,4.1578436,318.3719